Regional Weather Roundup
Issued by NWS Charleston, SC

Current Version | Previous Version | Graphics & Text | Print | Product List | Glossary On
Versions: 1 2 3 4 5 6 7 8 9 10 11 12 13 14 15 16 17 18 19 20 21 22 23 24 25 26 27 28 29 30 31 32 33 34 35 36 37 38 39 40 41 42 43 44 45 46 47 48 49 50
000 ASUS42 KCHS 221825 RWRCHS REGIONAL WEATHER ROUNDUP NATIONAL WEATHER SERVICE CHARLESTON SC 100 PM EST MON DEC 22 2014 NOTE: "FAIR" INDICATES FEW OR NO CLOUDS BELOW 12,000 FEET WITH NO SIGNIFICANT WEATHER AND/OR OBSTRUCTIONS TO VISIBILITY. NOT ALL STATIONS ARE QUALITY CONTROLLED BY THE NATIONAL WEATHER SERVICE. USE DATA WITH CAUTION...ESPECIALLY DEWPOINT OBSERVATIONS. SCZ027-030-031-034>040-042>050-221900- ...SOUTHEAST SOUTH CAROLINA... CITY SKY/WX TMP DP RH WIND PRES REMARKS N CHARLESTON LGT RAIN 47 46 97 N5 30.01F 6HR MIN TEMP: 45; 6HR MAX TEMP: 48; 6HR PCP: 0.06; WATERFRONT PRK N/A 48 N/A N/A N8 N/A MOUNT PLEASANT LGT RAIN 48 48 100 N3 29.99F PINOPOLIS NOT AVBL MONCKS CORNER DRIZZLE 46 45 93 CALM 30.01S SUMMERVILLE LGT RAIN 46 46 100 NE5 30.01F BEAUFORT MCAS RAIN 48 46 93 NW6 29.98F VSB 1 6HR MIN TEMP: 47; 6HR MAX TEMP: 49; 6HR PCP: 0.07; BEAUFORT ARPT LGT RAIN 48 48 100 N8 29.97F HILTON HEAD IS RAIN 50 50 100 N6 29.98F WALTERBORO RAIN 46 N/A N/A N6 30.02R ALLENDALE LGT RAIN 46 45 93 N6 29.99F ...SOUTHERN MIDLANDS AND PEE DEE... CITY SKY/WX TMP DP RH WIND PRES REMARKS GEORGETOWN NOT AVBL KINGSTREE NOT AVBL ORANGEBURG LGT RAIN 45 42 89 NE3 30.03S FOG 6HR MIN TEMP: 44; 6HR MAX TEMP: 45; 6HR PCP: 0.25; BARNWELL LGT RAIN 46 45 93 NE9 30.01F AIKEN RAIN 45 45 100 NE9 30.03F MANNING CLOUDY 45 N/A N/A N9 30.02S COLUMBIA LGT RAIN 45 43 93 NE8 30.04F FOG 6HR MIN TEMP: 45; 6HR MAX TEMP: 46; 6HR PCP: TRACE; SUMTER NOT AVBL FLORENCE CLOUDY 43 41 93 NE10 30.02F 6HR MIN TEMP: 42; 6HR MAX TEMP: 44; 6HR PCP: TRACE; MYRTLE BEACH CLOUDY 46 43 87 N7 30.04F FOG N MYRTLE BEACH LGT RAIN 47 45 93 N6 30.01F 6HR MIN TEMP: 44; 6HR MAX TEMP: 47; 6HR PCP: TRACE; $$ GAZ063-065-086>088-099>101-113>116-118-119-134>141-150-221900- ...SOUTHEAST GEORGIA... CITY SKY/WX TMP DP RH WIND PRES REMARKS SAVANNAH ARPT LGT RAIN 50 48 93 N7 30.00F VSB 1 6HR MIN TEMP: 48; 6HR MAX TEMP: 50; 6HR PCP: 0.10; HUNTER AAF NOT AVBL FORT STEWART NOT AVBL STATESBORO LGT RAIN 47 47 100 CALM 29.97F SYLVANIA RAIN 46 46 100 E7 29.97F CLAXTON LGT RAIN 48 48 100 CALM 29.98F ...CSRA...CENTRAL AND FAR SOUTHEAST GEORGIA... CITY SKY/WX TMP DP RH WIND PRES REMARKS THOMSON CLOUDY 47 47 100 N7 30.02F AUGUSTA-BUSH LGT RAIN 46 45 96 N8 30.01F 6HR MIN TEMP: 45; 6HR MAX TEMP: 47; 6HR PCP: 0.37; AUGUSTA-DANIEL LGT RAIN 47 46 97 NE9 29.98F FOG SWAINSBORO CLOUDY N/A N/A N/A E7 29.96F VIDALIA LGT RAIN 48 48 100 NE9 29.96F EASTMAN CLOUDY 51 51 100 NE5 29.97F HAZLEHURST CLOUDY 52 52 100 N3 29.94S ALMA LGT RAIN 50 50 100 E8 29.95F FOG 6HR MIN TEMP: 48; 6HR MAX TEMP: 51; 6HR PCP: 0.01; WAYCROSS RAIN 56 55 99 N7 29.97F JESUP HVY RAIN 54 54 100 N3 29.99R BAXLEY LGT RAIN 54 52 94 E3 29.94F BRUNSWICK CLOUDY 55 54 94 CALM 29.97F VSB 1/2 SAINT SIMONS LGT RAIN 56 55 97 N6 29.95F FOG 6HR MIN TEMP: 55; 6HR MAX TEMP: 57; $$ SCZ027-028-034-036>038-045-046-048>050-GAZ119-141-221900- ...LAKE AND SUPPLEMENTAL COASTAL OBSERVATIONS... STATION/POSITION TIME TEMP WIND PRES WAVE SWELL AIR SEA DIR/SP/G HT/PER HT/PER/DIR (UTC) (F) (DEG/KT/KT) (MB) (FT/S) (FT/S/D) UPR LAKE MARION NOT AVBL WINYAH BAY 1800 45 360/ 3 1016.0S LAKE MURRAY 1800 44 40/ 6/ 8 1016.3F ACE BASIN NERRS 1800 48 30/ 3 1015.0S FORT PULASKI 1800 51 55 20/ 8/ 11 1015.3F SAPELO ISLAND 1800 54 50/ 7 1014.0F $$ ANZ835-935-AMZ111-154-330-350-352-354-370-450-454-472-221900- ...C-MAN AND BUOY OBSERVATIONS... STATION/POSITION TIME TEMP WIND PRES WAVE SWELL AIR SEA DIR/SP/G HT/PER HT/PER/DIR (UTC) (F) (DEG/KT/KT) (MB) (FT/S) (FT/S/D) BUOY 41004 1800 60 73 10/ 12/ 14 1015.2F 5/ 8 3/ 8 BUOY 41008 1800 57 59 50/ 12/ 14 1014.6F 4/10 2/ 60/10 FOLLY BEACH CMAN 1800 48 10/ 7/ 9 1015.7F CAPERS NEARSHORE NOT AVBL FRIPP NEARSHORE NOT AVBL STATION/POSITION TIME TEMP WIND PRES WAVE SWELL AIR SEA DIR/SP/G HT/PER HT/PER/DIR (UTC) (F) (DEG/KT/KT) (MB) (FT/S) (FT/S/D) 5E ST. MARYS GA 1800 61 N/A 3/10 FRYING PAN BUOY 1800 54 69 10/ 12/ 16 1016.2F 5/ 8 3/ 90/ 8 BUOY 41025 1800 70 1013.6F 10/ 8 CAPE LOOKOUT NC 1800 51 340/ 9/ 11 1014.7F BUOY 41002 1717 71 72 210/ 10/ 10 1016.4F 5/ 6 5/ 70/ 6 BUOY 41010 1800 76 77 160/ 12/ 14 1015.7F 3/ 7 3/ 50/ 7 ST AUGUSTINE FL 1800 66 170/ 12/ 13 1014.2F $$

USA.gov is the U.S. government's official web portal to all federal, state and local government web resources and services.